EW7397 Weather Reports


time (UTC)temp
C
wind
direction
speed
KPH
gust
KPH
rain 1hr
cm
rain 24hr
cm
rain mn
cm
humidity
%
barometer
mb
20260507221503 12 295 1.6 8.0 0.00 0.13 0.00 75 1016.7
20260507221003 12 347 0.0 8.0 0.00 0.13 0.00 74 1016.8
20260507220712 13 3 0.0 4.8 0.00 0.13 0.00 74 1016.8
20260507220052 13 46 1.6 1.6 0.00 0.13 0.00 73 1016.7
20260507215505 13 43 3.2 4.8 0.00 0.13 0.13 73 1016.7
20260507215003 13 49 3.2 8.0 0.00 0.13 0.13 72 1016.7
20260507214505 13 57 4.8 9.7 0.00 0.13 0.13 71 1016.6
20260507214003 13 66 4.8 9.7 0.00 0.13 0.13 72 1016.7
20260507213505 13 69 4.8 11.3 0.00 0.13 0.13 72 1016.7
20260507213003 13 76 6.4 19.3 0.00 0.13 0.13 73 1016.6
20260507212503 13 103 4.8 19.3 0.00 0.13 0.13 73 1016.7
20260507212005 12 107 3.2 16.1 0.00 0.13 0.13 74 1016.6
20260507211503 12 82 3.2 9.7 0.00 0.13 0.13 75 1016.5
20260507211005 12 91 3.2 9.7 0.00 0.13 0.13 75 1016.4
20260507210503 12 77 3.2 12.9 0.00 0.13 0.13 76 1016.3
20260507210212 12 69 3.2 12.9 0.00 0.13 0.13 76 1016.3
20260507205505 11 72 1.6 9.7 0.00 0.13 0.13 79 1016.3
20260507205003 11 70 1.6 9.7 0.00 0.13 0.13 80 1016.2
20260507204505 11 75 1.6 9.7 0.00 0.13 0.13 83 1016.3
20260507204210 11 53 1.6 9.7 0.00 0.13 0.13 84 1016.3
20260507203503 11 303 1.6 3.2 0.00 0.13 0.13 85 1016.2
20260507203005 11 316 1.6 3.2 0.00 0.13 0.13 86 1016.3
20260507202503 11 316 1.6 4.8 0.00 0.13 0.13 86 1016.1
20260507202003 11 315 0.0 4.8 0.00 0.13 0.13 86 1016.1
20260507201503 12 315 0.0 3.2 0.00 0.13 0.13 85 1016.1
20260507201003 12 315 1.6 1.6 0.00 0.13 0.13 85 1015.9
20260507200505 12 315 1.6 4.8 0.00 0.13 0.13 84 1015.8
20260507200004 12 315 1.6 4.8 0.00 0.13 0.13 85 1015.7
20260507195505 12 315 1.6 3.2 0.00 0.13 0.13 85 1015.6
20260507195003 12 315 0.0 3.2 0.00 0.13 0.13 84 1015.3
20260507194710 12 315 0.0 3.2 0.00 0.13 0.13 84 1015.1
20260507194005 12 315 1.6 3.2 0.00 0.13 0.13 83 1015.0
20260507193503 12 315 0.0 3.2 0.00 0.13 0.13 83 1014.8
20260507193005 12 315 0.0 3.2 0.00 0.13 0.13 82 1014.7
20260507192503 13 315 0.0 1.6 0.00 0.13 0.13 81 1014.7
20260507192005 13 314 0.0 3.2 0.00 0.13 0.13 81 1014.5
20260507191505 13 313 0.0 3.2 0.00 0.13 0.13 82 1014.3
20260507191003 13 290 0.0 4.8 0.00 0.13 0.13 81 1014.2
20260507190505 13 279 0.0 4.8 0.00 0.13 0.13 80 1014.1
20260507190005 13 256 0.0 3.2 0.00 0.13 0.13 80 1014.0
20260507185711 14 262 0.0 4.8 0.00 0.13 0.13 80 1013.9
20260507185005 14 295 0.0 4.8 0.00 0.13 0.13 79 1013.8
20260507184503 14 339 0.0 1.6 0.00 0.13 0.13 78 1013.8
20260507184003 15 339 1.6 1.6 0.00 0.13 0.13 78 1013.7
20260507183505 15 339 1.6 6.4 0.00 0.13 0.13 77 1013.7
20260507183210 15 334 1.6 6.4 0.00 0.13 0.13 77 1013.6
20260507182503 15 317 1.6 4.8 0.00 0.13 0.13 77 1013.5
20260507182005 15 316 1.6 4.8 0.00 0.13 0.13 77 1013.3
20260507181503 15 314 1.6 4.8 0.00 0.13 0.13 76 1013.3
20260507181212 16 317 1.6 4.8 0.00 0.13 0.13 75 1013.3
20260507180711 16 328 3.2 4.8 0.00 0.13 0.13 75 1013.3
20260507180004 16 324 3.2 8.0 0.00 0.13 0.13 75 1013.2
20260507175505 16 314 3.2 8.0 0.00 0.13 0.13 75 1013.1
20260507175003 16 319 1.6 6.4 0.00 0.13 0.13 73 1013.1
20260507174503 17 328 1.6 4.8 0.00 0.13 0.13 73 1012.9
20260507174005 17 324 3.2 4.8 0.00 0.13 0.13 72 1012.9
20260507173710 17 325 3.2 6.4 0.00 0.13 0.13 72 1012.9
20260507173005 17 306 1.6 6.4 0.00 0.13 0.13 71 1012.8
20260507172503 18 285 1.6 4.8 0.00 0.13 0.13 70 1012.8
20260507172003 18 280 1.6 3.2 0.00 0.13 0.13 68 1012.8
20260507171505 18 270 3.2 4.8 0.00 0.13 0.13 67 1012.7
20260507171003 18 258 3.2 8.0 0.00 0.13 0.13 65 1012.8
20260507170503 19 241 3.2 9.7 0.00 0.13 0.13 65 1012.7
20260507170005 19 223 1.6 12.9 0.00 0.13 0.13 64 1012.6
20260507165503 19 194 1.6 12.9 0.00 0.13 0.13 64 1012.7
20260507165003 19 152 3.2 6.4 0.00 0.13 0.13 64 1012.8
20260507164505 20 222 6.4 9.7 0.00 0.13 0.13 64 1012.7
20260507164003 20 246 6.4 14.5 0.00 0.13 0.13 63 1012.7
20260507163505 20 248 6.4 19.3 0.00 0.13 0.13 62 1012.7
20260507163003 20 249 4.8 19.3 0.00 0.13 0.13 63 1012.6
20260507162505 20 253 4.8 16.1 0.00 0.13 0.13 62 1012.5
20260507162003 20 242 6.4 12.9 0.00 0.13 0.13 63 1012.5
20260507161712 20 225 6.4 12.9 0.00 0.13 0.13 64 1012.5
20260507161003 20 236 6.4 12.9 0.00 0.13 0.13 63 1012.4
20260507160710 20 242 6.4 12.9 0.00 0.13 0.13 62 1012.4
20260507160213 20 236 4.8 12.9 0.00 0.13 0.13 63 1012.3
20260507155503 20 217 4.8 9.7 0.00 0.13 0.13 63 1012.5
20260507155005 20 226 4.8 6.4 0.00 0.13 0.13 61 1012.3
20260507154503 20 242 4.8 8.0 0.00 0.13 0.13 63 1012.4
20260507154005 20 245 4.8 11.3 0.00 0.13 0.13 63 1012.3
20260507153504 20 247 4.8 11.3 0.00 0.13 0.13 62 1012.3
20260507153005 20 263 4.8 11.3 0.00 0.13 0.13 62 1012.3
20260507152711 20 263 4.8 9.7 0.00 0.13 0.13 62 1012.4
20260507152005 20 268 3.2 9.7 0.00 0.13 0.13 61 1012.2
20260507151503 20 303 3.2 8.0 0.00 0.13 0.13 61 1012.4
20260507151003 20 298 3.2 8.0 0.00 0.13 0.13 64 1012.3
20260507150712 20 289 3.2 9.7 0.00 0.13 0.13 64 1012.3
20260507150005 20 260 3.2 9.7 0.00 0.13 0.13 65 1012.4
20260507145505 20 254 4.8 9.7 0.00 0.13 0.13 65 1012.3
20260507145003 20 233 6.4 11.3 0.00 0.13 0.13 67 1012.4
20260507144503 19 228 4.8 11.3 0.00 0.13 0.13 65 1012.4
20260507144005 19 247 4.8 14.5 0.00 0.13 0.13 64 1012.5
20260507143503 19 252 4.8 14.5 0.00 0.13 0.13 65 1012.4
20260507143003 19 243 4.8 9.7 0.00 0.13 0.13 67 1012.5
20260507142505 19 240 6.4 9.7 0.00 0.13 0.13 68 1012.4
20260507142003 19 231 6.4 17.7 0.00 0.13 0.13 69 1012.5
20260507141503 19 259 4.8 17.7 0.00 0.13 0.13 70 1012.5
20260507141006 18 316 4.8 12.9 0.00 0.13 0.13 71 1012.6
20260507140503 18 253 4.8 12.9 0.00 0.13 0.13 72 1012.6
20260507140005 18 222 4.8 9.7 0.00 0.13 0.13 72 1012.7
20260507135505 18 225 4.8 9.7 0.00 0.13 0.13 73 1012.8
20260507135003 18 241 4.8 9.7 0.00 0.13 0.13 72 1012.8
20260507134505 18 238 6.4 12.9 0.00 0.13 0.13 71 1013.0
20260507134003 18 233 4.8 14.5 0.00 0.13 0.13 70 1012.9
20260507133505 18 236 3.2 14.5 0.00 0.13 0.13 72 1013.0
20260507133211 18 235 3.2 14.5 0.00 0.13 0.13 74 1013.2
20260507132503 18 253 4.8 8.0 0.00 0.13 0.13 76 1013.2
20260507132212 18 269 4.8 12.9 0.00 0.13 0.13 75 1013.4
20260507131503 18 265 4.8 12.9 0.00 0.13 0.13 74 1013.4
20260507131005 18 238 4.8 9.7 0.03 0.13 0.13 73 1013.5
20260507130503 18 239 4.8 16.1 0.03 0.13 0.13 73 1013.6
20260507130005 18 243 3.2 16.1 0.03 0.13 0.13 73 1013.6
20260507125503 18 214 3.2 8.0 0.03 0.13 0.13 76 1013.6
20260507125212 17 245 3.2 8.0 0.03 0.13 0.13 76 1013.6
20260507124503 17 265 3.2 11.3 0.03 0.13 0.13 75 1013.6
20260507124005 17 265 4.8 9.7 0.03 0.13 0.13 77 1013.6
20260507123503 17 245 6.4 9.7 0.03 0.13 0.13 79 1013.7
20260507123003 17 233 6.4 9.7 0.03 0.13 0.13 80 1013.6
20260507122503 17 250 4.8 11.3 0.03 0.13 0.13 80 1013.7
20260507122004 17 257 4.8 11.3 0.03 0.13 0.13 81 1013.7
20260507121505 17 231 4.8 12.9 0.03 0.13 0.13 81 1013.7
20260507121003 17 232 4.8 12.9 0.00 0.10 0.10 79 1013.7
20260507120503 17 253 4.8 9.7 0.00 0.10 0.10 79 1014.0
20260507120006 17 162 4.8 14.5 0.00 0.10 0.10 79 1014.0
20260507115503 17 158 6.4 14.5 0.00 0.10 0.10 78 1013.9
20260507115005 18 236 6.4 16.1 0.00 0.10 0.10 77 1014.0
20260507114503 18 240 4.8 16.1 0.00 0.10 0.10 78 1013.9
20260507114211 18 254 4.8 14.5 0.00 0.10 0.10 77 1013.9
20260507113712 17 263 4.8 11.3 0.00 0.10 0.10 78 1013.7
20260507113004 17 244 8.0 14.5 0.00 0.10 0.10 77 1013.6
20260507112505 17 248 8.0 16.1 0.00 0.10 0.10 76 1013.8
20260507112003 17 244 6.4 16.1 0.00 0.10 0.10 77 1013.9
20260507111712 17 239 6.4 16.1 0.00 0.10 0.10 77 1013.9
20260507111003 17 148 4.8 14.5 0.00 0.10 0.10 80 1014.0
20260507110505 17 129 4.8 12.9 0.00 0.10 0.10 80 1014.0
20260507110004 17 121 3.2 12.9 0.00 0.10 0.10 82 1014.1
20260507105505 17 134 4.8 12.9 0.00 0.10 0.10 81 1014.1
20260507105210 17 75 4.8 9.7 0.00 0.10 0.10 84 1014.1
20260507104506 17 97 3.2 12.9 0.00 0.10 0.10 84 1014.1
20260507104003 16 105 3.2 12.9 0.00 0.10 0.10 85 1014.1
20260507103505 16 92 3.2 6.4 0.00 0.10 0.10 85 1014.1
20260507103005 16 178 3.2 8.0 0.00 0.10 0.10 85 1014.1
20260507102503 16 193 3.2 8.0 0.00 0.15 0.10 85 1014.1
20260507102003 16 130 3.2 6.4 0.00 0.15 0.10 84 1014.2
20260507101506 16 140 3.2 6.4 0.00 0.15 0.10 84 1014.1
20260507101003 16 167 3.2 8.0 0.00 0.15 0.10 85 1014.2
20260507100712 16 177 1.6 8.0 0.00 0.15 0.10 85 1014.2
20260507100005 16 150 1.6 6.4 0.00 0.15 0.10 85 1014.3
20260507095503 16 95 1.6 6.4 0.00 0.15 0.10 84 1014.3
20260507095005 15 94 1.6 6.4 0.00 0.15 0.10 86 1014.2
20260507094504 15 79 1.6 3.2 0.00 0.15 0.10 86 1014.3
20260507094005 15 42 1.6 3.2 0.00 0.15 0.10 88 1014.3
20260507093503 15 21 1.6 3.2 0.00 0.15 0.10 87 1014.3
20260507093005 15 348 1.6 3.2 0.00 0.15 0.10 87 1014.3
20260507092503 15 348 1.6 4.8 0.00 0.15 0.10 88 1014.3
20260507092003 15 348 1.6 4.8 0.00 0.15 0.10 88 1014.3
20260507091505 15 348 1.6 3.2 0.00 0.15 0.10 88 1014.3
20260507091211 15 348 0.0 3.2 0.00 0.15 0.10 89 1014.3
20260507090710 15 347 1.6 3.2 0.00 0.15 0.10 90 1014.3
20260507090213 14 346 1.6 3.2 0.00 0.15 0.10 90 1014.2
20260507085503 14 345 0.0 3.2 0.00 0.15 0.10 90 1014.3
20260507085003 14 344 0.0 1.6 0.00 0.15 0.10 90 1014.2
20260507084503 14 344 0.0 3.2 0.00 0.15 0.10 91 1014.2
20260507084003 14 344 0.0 3.2 0.03 0.15 0.10 91 1014.0
20260507083505 13 343 0.0 1.6 0.03 0.15 0.10 91 1014.1
20260507083004 13 343 0.0 1.6 0.03 0.15 0.10 91 1014.1
20260507082505 13 343 0.0 3.2 0.03 0.15 0.10 91 1014.0
20260507082003 13 343 0.0 3.2 0.03 0.15 0.10 91 1013.9
20260507081503 13 343 0.0 3.2 0.03 0.15 0.10 91 1014.0
20260507081005 13 342 0.0 1.6 0.03 0.15 0.10 91 1014.1
20260507080710 13 342 0.0 1.6 0.03 0.15 0.10 91 1014.2
20260507080004 13 342 0.0 1.6 0.03 0.15 0.10 91 1014.1
20260507075505 13 342 0.0 3.2 0.03 0.15 0.10 91 1014.1
20260507075003 13 344 0.0 3.2 0.03 0.15 0.10 91 1014.1
20260507074712 13 344 0.0 3.2 0.03 0.15 0.10 91 1014.0
20260507074003 13 345 1.6 1.6 0.00 0.15 0.08 91 1013.7
20260507073505 13 345 1.6 3.2 0.00 0.15 0.08 91 1013.8
20260507073211 13 344 1.6 3.2 0.00 0.15 0.08 91 1013.7
20260507072503 13 344 0.0 3.2 0.00 0.15 0.08 91 1013.5
20260507072212 13 344 0.0 3.2 0.00 0.15 0.08 92 1013.7
20260507071504 13 0 0.0 0.0 0.00 0.15 0.08 91 1013.7
20260507071003 13 0 0.0 0.0 0.00 0.15 0.08 91 1013.7
20260507070505 13 343 0.0 1.6 0.00 0.15 0.08 91 1013.7
20260507070009 13 343 0.0 1.6 0.00 0.15 0.08 91 1013.6
20260507065503 13 0 0.0 0.0 0.00 0.15 0.08 91 1013.7
20260507065005 13 343 0.0 1.6 0.00 0.15 0.08 91 1013.6
20260507064503 12 343 0.0 1.6 0.00 0.15 0.08 92 1013.5
20260507064005 12 343 0.0 1.6 0.00 0.15 0.08 91 1013.6
20260507063503 12 343 0.0 1.6 0.00 0.15 0.08 91 1013.5
20260507063005 12 343 0.0 1.6 0.00 0.15 0.08 92 1013.4
20260507062710 12 343 0.0 1.6 0.00 0.15 0.08 92 1013.4
20260507062210 12 343 0.0 3.2 0.00 0.15 0.08 92 1013.3
20260507061505 12 343 0.0 3.2 0.00 0.15 0.08 93 1013.3
20260507061211 12 340 0.0 3.2 0.00 0.15 0.08 93 1013.3
20260507060503 12 328 0.0 3.2 0.00 0.15 0.08 93 1013.2
20260507060005 12 0 0.0 0.0 0.00 0.15 0.08 93 1013.2
20260507055503 12 0 0.0 0.0 0.00 0.15 0.08 93 1013.2
20260507055005 12 0 0.0 0.0 0.00 0.15 0.08 93 1013.2
20260507054503 12 0 0.0 0.0 0.00 0.15 0.08 93 1013.4
20260507053503 11 0 0.0 0.0 0.00 0.15 0.08 93 1013.2
20260507053005 11 0 0.0 0.0 0.00 0.15 0.08 93 1013.2
20260507052710 11 0 0.0 0.0 0.00 0.15 0.08 93 1013.2
20260507052003 11 316 0.0 1.6 0.00 0.15 0.08 93 1013.1
20260507051505 11 316 0.0 1.6 0.00 0.15 0.08 93 1013.2
20260507051003 11 316 0.0 1.6 0.00 0.15 0.08 93 1013.1
20260507050505 11 316 0.0 1.6 0.03 0.15 0.08 93 1013.1
20260507050211 11 316 0.0 1.6 0.03 0.15 0.08 93 1013.1
20260507045503 11 0 0.0 0.0 0.03 0.15 0.08 92 1013.0
20260507045005 11 0 0.0 0.0 0.03 0.15 0.08 92 1012.8
20260507044503 11 316 0.0 1.6 0.03 0.15 0.08 92 1012.7
20260507044005 11 316 0.0 1.6 0.03 0.15 0.08 93 1012.6
20260507043503 11 316 0.0 1.6 0.03 0.15 0.08 93 1012.5
20260507043003 11 316 0.0 3.2 0.03 0.15 0.08 93 1012.5
20260507042505 11 316 0.0 3.2 0.03 0.15 0.08 92 1012.4
20260507042003 11 316 0.0 1.6 0.03 0.15 0.08 92 1012.4
20260507041503 11 316 0.0 3.2 0.03 0.15 0.08 92 1012.4
20260507041003 11 316 0.0 3.2 0.03 0.15 0.08 92 1012.3
20260507040503 11 316 0.0 1.6 0.00 0.13 0.05 92 1012.3
20260507040006 11 0 0.0 0.0 0.00 0.13 0.05 91 1012.3
20260507035711 11 0 0.0 0.0 0.00 0.13 0.05 91 1012.3
20260507035212 11 0 0.0 0.0 0.00 0.13 0.05 91 1012.4
20260507034503 11 0 0.0 0.0 0.00 0.13 0.05 91 1012.4
20260507034005 11 316 0.0 1.6 0.00 0.13 0.05 91 1012.3
20260507033503 11 316 0.0 3.2 0.00 0.13 0.05 92 1012.4
20260507033003 11 316 0.0 3.2 0.00 0.13 0.05 91 1012.3
20260507032505 11 316 0.0 1.6 0.00 0.13 0.05 91 1012.3
20260507032211 11 0 0.0 0.0 0.00 0.13 0.05 91 1012.3
20260507031503 11 316 0.0 3.2 0.00 0.13 0.05 91 1012.2
20260507031005 11 316 1.6 3.2 0.00 0.13 0.05 91 1012.2
20260507030710 11 316 1.6 3.2 0.00 0.13 0.05 91 1012.3
20260507030006 11 316 0.0 3.2 0.00 0.13 0.05 90 1012.2
20260507025503 11 316 0.0 3.2 0.00 0.13 0.05 90 1012.1
20260507025005 11 316 0.0 3.2 0.00 0.13 0.05 90 1011.9
20260507024503 11 316 0.0 3.2 0.00 0.13 0.05 90 1011.9
20260507024003 11 316 0.0 3.2 0.00 0.13 0.05 91 1012.0
20260507023505 11 316 0.0 3.2 0.00 0.13 0.05 91 1012.1
20260507023004 11 0 0.0 0.0 0.00 0.13 0.05 91 1012.0
20260507022503 11 316 0.0 1.6 0.00 0.13 0.05 91 1012.1
20260507022005 11 316 0.0 1.6 0.00 0.13 0.05 90 1012.1
20260507021503 11 316 0.0 1.6 0.00 0.13 0.05 90 1012.1
20260507021005 11 0 0.0 0.0 0.00 0.13 0.05 91 1012.1
20260507020503 11 0 0.0 0.0 0.00 0.13 0.05 91 1012.1
20260507020005 11 316 0.0 1.6 0.00 0.13 0.05 90 1012.1
20260507015503 11 316 0.0 1.6 0.00 0.13 0.05 89 1012.1
20260507015005 11 316 0.0 1.6 0.00 0.13 0.05 89 1012.0
20260507014503 11 316 0.0 1.6 0.00 0.13 0.05 89 1012.1
20260507014003 11 316 0.0 3.2 0.00 0.13 0.05 89 1012.0
20260507013505 11 316 0.0 3.2 0.00 0.13 0.05 89 1012.1
20260507013003 11 316 0.0 3.2 0.00 0.13 0.05 89 1012.0
20260507012503 12 0 0.0 0.0 0.00 0.13 0.05 88 1012.1
20260507012005 12 0 0.0 0.0 0.00 0.13 0.05 88 1012.1
20260507011503 12 314 1.6 4.8 0.00 0.13 0.05 89 1012.0
20260507011005 12 307 1.6 4.8 0.03 0.13 0.05 89 1012.1
20260507010503 12 303 0.0 4.8 0.03 0.13 0.05 89 1012.0
20260507010006 12 303 0.0 3.2 0.05 0.13 0.05 89 1011.9
20260507005503 12 303 0.0 1.6 0.05 0.13 0.05 88 1012.0
20260507005213 12 0 0.0 0.0 0.05 0.13 0.05 88 1012.0
20260507004503 12 303 1.6 3.2 0.05 0.13 0.05 88 1012.2
20260507004210 13 303 1.6 3.2 0.05 0.13 0.05 88 1012.1
20260507003505 13 288 1.6 4.8 0.05 0.13 0.05 89 1012.3
20260507003210 13 238 1.6 4.8 0.05 0.13 0.05 89 1012.2
20260507002503 13 105 1.6 3.2 0.05 0.13 0.05 88 1012.3
20260507002003 13 129 0.0 3.2 0.05 0.13 0.05 88 1012.3
20260507001504 13 132 0.0 3.2 0.05 0.13 0.05 88 1012.3
20260507001005 13 138 0.0 1.6 0.05 0.10 0.05 87 1012.4
20260507000503 13 138 0.0 1.6 0.05 0.10 0.05 88 1012.5
20260507000004 13 138 0.0 3.2 0.03 0.08 0.03 87 1012.6
20260506235505 13 138 0.0 4.8 0.03 0.08 0.03 87 1012.6
20260506235003 13 137 1.6 4.8 0.03 0.08 0.03 87 1012.6
20260506234712 13 136 1.6 4.8 0.03 0.08 0.03 87 1012.7
20260506234003 13 149 1.6 6.4 0.03 0.08 0.03 87 1012.6
20260506233503 13 176 0.0 6.4 0.03 0.08 0.03 86 1012.5
20260506233005 13 217 0.0 4.8 0.00 0.05 0.00 87 1012.6
20260506232503 13 246 1.6 3.2 0.00 0.05 0.00 87 1012.5
20260506232005 13 246 1.6 3.2 0.00 0.05 0.00 87 1012.3
20260506231503 13 250 1.6 4.8 0.00 0.05 0.00 87 1012.5
20260506231005 13 274 0.0 4.8 0.00 0.05 0.00 87 1012.4
20260506230508 13 311 0.0 3.2 0.00 0.05 0.00 88 1012.4
20260506230006 13 312 1.6 4.8 0.00 0.05 0.00 88 1012.3
20260506225503 13 316 1.6 4.8 0.00 0.05 0.00 87 1012.2
20260506225005 13 323 3.2 4.8 0.00 0.05 0.00 88 1012.3
20260506224710 13 314 3.2 6.4 0.00 0.05 0.00 88 1012.2
20260506224003 13 322 1.6 6.4 0.00 0.05 0.00 88 1012.3
20260506223505 13 331 1.6 4.8 0.00 0.05 0.00 88 1012.2
20260506223003 13 331 1.6 4.8 0.00 0.05 0.00 87 1012.1
20260506222505 13 332 1.6 4.8 0.00 0.05 0.00 87 1012.0
20260506222003 13 332 1.6 4.8 0.00 0.05 0.00 88 1012.0